Tracking 35331 objects as of 17-Sep-2026
HD Live streaming from Space Station
objects crossing your sky now

LEMUR 2 AMANDA-SVANTE

Track LEMUR 2 AMANDA-SVANTE now!
10-day predictions
LEMUR 2 AMANDA-SVANTE is classified as:


NORAD ID: 48269
Int'l Code: 2021-034B
Launch date: April 29, 2021
Source: United States (US)
Launch site: FRENCH GUIANA (FRGUI)
Your satellite tracking list
Your tracking list is empty




NASA's NSSDC Master Catalog

Two Line Element Set (TLE):
1 48269U 21034B   26259.17816154  .00040309  00000-0  10179-2 0  9992
2 48269  97.5686 340.1945 0001079 254.7514 105.3612 15.39714520295037
Source of the keplerian elements: AFSPC